03:55
Airports
History
Links
Donate
Help keep this website running!
PayPal
Bitcoin
This page is community maintained. The information is intended for PC simulator navigation or reference.
Always use approved charts for navigation.
SABE
Aeroparque Jorge Newbery
Aeroparque Jorge Newbery (SABE)
Buenos Aires, Buenos Aires, Argentina (1425)
(C)
Lat/Lng:34° 33' 33.89" S / 58° 24' 56.7" W
-34.559414 / -58.415749
Elevation:17'ft / 5mMSL
ID / ICAO:SABE
Runways:1
Longest:13-31
Concrete 2,092m / 6,864ft
Controlled:Yes
METAR03:00 GMT 2017-10-24
Altimeter: 30.00
Visibility: 6.2 statute miles
Wind: 9 knots (from 020°)
Temp: 20°c / 68°f
Humidity: 60.0%

METAR: SABE 240300Z 02009KT CAVOK 20/12 Q1016

(Powered by phpweather)
Airport Radio Frequencies
AEROPARQUE ATIS: 127.6
Clearance Delivery: 129.3
Ground: 121.9
Tower: 118.85
Approach: 118.85
Runway 13 / 31
Dimensions:2092.1 x 39.9m 6864' x 131'ft
Surface:Concrete
Edge Lights:Medium intensity
Runway 13 [A]Runway 31 [B]
Heading:123°TH 303°TH
Lat:
Lng:
34° 33' 14.97"S
58° 25' 30.92"W
34° 33' 52.81"S
58° 24' 22.47"W
ALS:ALSF-I
TDZ:Yes, lighted
User Notes and Comments
34° 33' 33.89" S / 58° 24' 56.7" W
Distance To
Airport ID:
Nearby Airports
(C) El Palomar 11.7 NM
SADP ( WX ) WSW 252°
(C) San Fernando 12.3 NM
SADF NW 306°
4 Matanza 12.5 NM
SADZ SSW 202°
(C) Quilmes 14.1 NM
SADQ SE 136°
(C) Campo de Mayo 14.7 NM
SADO W 276°
(C) Moron 15.2 NM
SADM WSW 237°
(C) Aeroclub Argentino 15.8 NM
SADS SW 220°
VFR Chart
Flight Planning at SkyVector.com